STARLINK-2519 (48305 NORAD) Tracking and Keplerian Element Data

This shows tracking and keplerian element data for the satellite.

Feedback or suggestion? Click here.




ElementValue
Catalog48305
NameSTARLINK-2519
Epoch Orbit1494
Epoch Day214.60913309
Epoch Year2021
RAAN73.7807
Inclination53.0556
Eccentricity0.000181
Argument of Perigee94.7858
Mean Anonmoly265.3338
Mean Motion15.06390955
Decay Rate5.42E-06
L11 48305U 21036AF 21214.60913309 .00000542 00000-0 55300-4 0 9991
L22 48305 53.0556 73.7807 0001810 94.7858 265.3338 15.06390955 14940

Live tracking and technical data element details for STARLINK-2519 (NORAD 48305). STARLINK-2519 can be tracked NOW for your location showing map with azimuth and elevation plus other details from your city location.

Track the satellite on the map from your city or location and see movement details for azimuth, elevation, latitude, longitude, range, height, and movement on the map or in text.







IsCatalogInMostPopularTable: catalog: 48305, numindb: 30
Update: records affected: 1



GetName: 48305 STARLINK-2519

Hit Count: updated at: Wed, 04 Aug 2021 00:45:57 GMT